Providence, RI

9:24 AM EDT on May 23, 2018 (GMT -0400)
Green State

Weather History for KPVD - March, 2014

Change the Weather History Date:

Monday, March 31, 2014

  Actual Average Record
Temperature  
Mean Temperature 38 °F 44 °F  
Max Temperature 40 °F 53 °F 85 °F (1998)
Min Temperature 35 °F 35 °F 15 °F (1923)
Degree Days  
Heating Degree Days 27 21  
Month to date heating degree days 954 809  
Since 1 July heating degree days 5226 4871  
Cooling Degree Days 0 0  
Month to date cooling degree days 0 0  
Year to date cooling degree days 0 0  
Moisture  
Dew Point 32 °F    
Average Humidity 76    
Maximum Humidity 92    
Minimum Humidity 59    
Precipitation  
Precipitation 0.12 in 0.17 in 3.15 in (1987)
Month to date precipitation 6.73 5.01  
Year to date precipitation 15.13 12.16  
Snow  
Snow T in 0.10 in 5.90 in (1970)
Month to date snowfall 1.2 5.5  
Since 1 July snowfall 43.3 33.2  
Snow Depth 0.00 in    
Sea Level Pressure  
Sea Level Pressure 29.81 in    
Wind  
Wind Speed 15 mph (North)    
Max Wind Speed 26 mph    
Max Gust Speed 33 mph    
Visibility 7 miles    
Events Rain , Snow    
T = Trace of Precipitation, MM = Missing Value Source: NWS Daily Summary

Daily Weather History Graph

Daily Weather History Graph

Search for Another Location

Airport or City:

Astronomy

Mar. 31, 2014 Rise Set
Actual Time 6:30 AM EDT 7:10 PM EDT
Civil Twilight 6:02 AM EDT 7:38 PM EDT
Nautical Twilight 5:29 AM EDT 8:11 PM EDT
Astronomical Twilight 4:55 AM EDT 8:45 PM EDT
Moon 6:51 AM EDT (3/31) 8:26 PM EDT (3/31)
Length of Visible Light 13h 35m
Length of Day
12h 39m
New Moon, 1% of the Moon is Illuminated
Mar 31
New Moon
Apr 7
First Quarter
Apr 15
Full
Apr 22
Last Quarter
Apr 29
New

Hourly Weather History & Observations

Time (EDT) Temp. Windchill Dew Point Humidity Pressure Visibility Wind Dir Wind Speed Gust Speed Precip Events Conditions
12:25 AM 37.0 °F 26.2 °F 34.0 °F 89% 29.68 in 5.0 mi NNE 21.9 mph - 0.09 in Rain Light Rain
12:51 AM 36.0 °F 26.0 °F 34.0 °F 93% 29.69 in 5.0 mi North 17.3 mph - 0.11 in Rain Light Rain
12:57 AM 36.0 °F 25.3 °F 34.0 °F 93% 29.69 in 6.0 mi North 19.6 mph 26.5 mph 0.00 in Rain Light Rain
1:28 AM 36.0 °F 25.3 °F 33.1 °F 89% 29.68 in 10.0 mi North 19.6 mph 28.8 mph 0.01 in Rain Light Rain
1:46 AM 35.6 °F 24.2 °F 33.8 °F 93% 29.68 in 10.0 mi North 21.9 mph - 0.01 in Rain Light Rain
1:51 AM 36.0 °F 26.0 °F 33.1 °F 89% 29.68 in 10.0 mi North 17.3 mph 29.9 mph 0.01 in Rain Light Rain
2:24 AM 36.0 °F 24.7 °F 32.0 °F 86% 29.68 in 10.0 mi NNE 21.9 mph 26.5 mph 0.00 in   Overcast
2:39 AM 36.0 °F 25.6 °F 32.0 °F 86% 29.68 in 10.0 mi NNE 18.4 mph 27.6 mph 0.00 in   Overcast
2:51 AM 36.0 °F 26.7 °F 32.0 °F 86% 29.69 in 10.0 mi NNE 15.0 mph 23.0 mph 0.00 in   Overcast
3:51 AM 36.0 °F 26.7 °F 32.0 °F 86% 29.70 in 8.0 mi North 15.0 mph - 0.00 in Rain Light Rain
4:29 AM 35.1 °F 26.4 °F 33.1 °F 92% 29.70 in 4.0 mi NNE 12.7 mph - 0.00 in Rain Light Rain
4:46 AM 35.6 °F 25.9 °F 33.8 °F 93% 29.70 in 3.0 mi North 16.1 mph - 0.00 in Snow Light Snow
4:51 AM 35.1 °F 25.9 °F 33.1 °F 92% 29.70 in 3.0 mi North 13.8 mph - 0.00 in Snow Light Snow
5:36 AM 35.1 °F 24.8 °F 33.1 °F 92% 29.70 in 5.0 mi North 17.3 mph - 0.01 in   Overcast
5:51 AM 35.1 °F 25.5 °F 33.1 °F 92% 29.70 in 7.0 mi North 15.0 mph - 0.01 in   Overcast
6:51 AM 35.1 °F 23.0 °F 32.0 °F 89% 29.73 in 4.0 mi NNE 24.2 mph 31.1 mph 0.01 in   Overcast
7:51 AM 35.1 °F 26.9 °F 33.1 °F 92% 29.77 in 2.5 mi North 11.5 mph - 0.00 in Rain Light Rain
8:05 AM 36.0 °F 27.5 °F 33.1 °F 89% 29.77 in 3.0 mi North 12.7 mph - 0.00 in   Light Drizzle
8:15 AM 36.0 °F 28.0 °F 33.1 °F 89% 29.78 in 3.0 mi North 11.5 mph - 0.00 in Rain Light Rain
8:51 AM 36.0 °F 26.0 °F 33.1 °F 89% 29.79 in 6.0 mi North 17.3 mph - 0.00 in Rain Light Rain
9:51 AM 37.0 °F 26.4 °F 33.1 °F 86% 29.81 in 10.0 mi North 20.7 mph 26.5 mph 0.00 in Rain Light Rain
10:51 AM 37.0 °F 27.7 °F 34.0 °F 89% 29.81 in 6.0 mi North 16.1 mph - 0.00 in Rain Light Rain
11:51 AM 37.9 °F 28.2 °F 33.1 °F 83% 29.82 in 5.0 mi North 18.4 mph 29.9 mph 0.01 in   Overcast
12:26 PM 36.0 °F 25.6 °F 32.0 °F 86% 29.82 in 4.0 mi North 18.4 mph 26.5 mph 0.00 in Snow Light Snow
12:43 PM 35.1 °F 24.5 °F 32.0 °F 89% 29.83 in 2.0 mi North 18.4 mph 24.2 mph 0.00 in Rain Rain
12:51 PM 35.1 °F 25.9 °F 32.0 °F 89% 29.83 in 1.5 mi North 13.8 mph 24.2 mph 0.02 in Rain Ice Pellets
12:58 PM 36.0 °F 27.1 °F 33.1 °F 89% 29.83 in 2.0 mi North 13.8 mph - 0.00 in Rain , Snow Light Rain
1:06 PM 36.0 °F 25.6 °F 32.0 °F 86% 29.83 in 5.0 mi North 18.4 mph - 0.00 in Rain , Snow Light Rain
1:14 PM 36.0 °F 26.7 °F 33.1 °F 89% 29.83 in 10.0 mi North 15.0 mph - 0.00 in Rain Light Rain
1:23 PM 36.0 °F 27.1 °F 32.0 °F 86% 29.83 in 5.0 mi North 13.8 mph 21.9 mph 0.01 in Rain Rain
1:38 PM 36.0 °F 27.1 °F 32.0 °F 86% 29.84 in 6.0 mi North 13.8 mph 20.7 mph 0.02 in Rain Light Rain
1:51 PM 36.0 °F 27.5 °F 32.0 °F 86% 29.84 in 5.0 mi North 12.7 mph - 0.03 in Rain Light Rain
1:58 PM 36.0 °F 27.1 °F 32.0 °F 86% 29.84 in 5.0 mi North 13.8 mph - 0.00 in Rain Light Rain
2:26 PM 37.0 °F 28.1 °F 33.1 °F 86% 29.85 in 3.0 mi North 15.0 mph - 0.02 in Rain Light Ice Pellets
2:41 PM 37.0 °F 28.9 °F 33.1 °F 86% 29.85 in 3.0 mi North 12.7 mph 23.0 mph 0.02 in Rain Light Rain
2:51 PM 37.0 °F 28.9 °F 34.0 °F 89% 29.86 in 6.0 mi North 12.7 mph - 0.02 in Rain Light Rain
2:59 PM 37.0 °F 28.5 °F 34.0 °F 89% 29.86 in 5.0 mi North 13.8 mph - 0.01 in Rain Light Rain
3:48 PM 39.2 °F 30.5 °F 33.8 °F 81% 29.86 in 10.0 mi North 16.1 mph 23.0 mph 0.01 in   Overcast
3:51 PM 39.0 °F 30.3 °F 34.0 °F 82% 29.86 in 10.0 mi North 16.1 mph 23.0 mph 0.01 in   Overcast
3:58 PM 39.9 °F 32.1 °F 34.0 °F 79% 29.86 in 10.0 mi North 13.8 mph - N/A   Overcast
4:51 PM 39.9 °F 33.9 °F 34.0 °F 79% 29.88 in 10.0 mi NNW 9.2 mph - N/A   Overcast
5:51 PM 39.9 °F 32.9 °F 32.0 °F 73% 29.91 in 10.0 mi NNW 11.5 mph - N/A   Overcast
6:51 PM 39.9 °F 32.9 °F 30.9 °F 70% 29.92 in 10.0 mi NNW 11.5 mph - N/A   Overcast
7:51 PM 39.9 °F 32.9 °F 30.9 °F 70% 29.95 in 10.0 mi NNW 11.5 mph 23.0 mph N/A   Overcast
8:37 PM 39.9 °F 31.4 °F 30.0 °F 68% 29.96 in 10.0 mi NNW 16.1 mph 24.2 mph N/A   Overcast
8:51 PM 39.9 °F 32.1 °F 30.0 °F 68% 29.97 in 10.0 mi North 13.8 mph 25.3 mph N/A   Overcast
9:51 PM 39.0 °F 30.6 °F 28.9 °F 67% 29.98 in 10.0 mi NNW 15.0 mph 24.2 mph N/A   Overcast
10:51 PM 39.0 °F 29.9 °F 28.0 °F 65% 29.99 in 10.0 mi North 17.3 mph 24.2 mph N/A   Overcast
11:51 PM 39.0 °F 29.6 °F 27.0 °F 62% 29.99 in 10.0 mi North 18.4 mph - N/A   Overcast